Location: Melara
(45.0500°N, 11.1833°E)
Time: 20:56:15
(UTC+00:00)

Cosmos 2074 Rocket - Pass Details

Date: 26 May 2022
Orbit: 968 x 985 km, 82.9° (Epoch: 02 July)

Event Time Altitude Azimuth Distance (km) Brightness Sun altitude
Rises 01:20:41 0° 349° (N) 3,700 7.8 -17.7°
Reaches altitude 10° 01:23:13 10° 348° (NNW) 2,749 7.0 -17.4°
Maximum altitude 01:29:29 72° 266° (W) 1,036 4.0 -16.8°
Enters shadow 01:34:00 20° 185° (S) 2,106 5.2 -16.4°
